Location: Walnut Point State Park
(39.6958°N, 88.0345°W)
Time: 06:21:09
(UTC-06:00)

Amateur Radio Satellites - All Passes

Search period start: 26 February 2017 05:51
Search period end: 27 February 2017 05:51
Location: Walnut Point State Park, 39.6958°N, 88.0345°W

Satellite Date Start Highest point End Downlink Frequencies (MHz)
Time Altitude Azimuth
ISS 26 Feb 06:05:54 06:07:32 13° 129° (SE) 06:09:10 437.550
KAITUO 1B 26 Feb 06:08:49 06:12:36 74° 102° (ESE) 06:16:19 145.475/437.950
STRAND 1 26 Feb 06:10:09 06:15:12 61° 73° (ENE) 06:20:18 437.568
XW-2A 26 Feb 06:10:36 06:11:41 11° 92° (E) 06:12:48 145.665 - 145.685
XW-2F 26 Feb 06:15:00 06:18:49 76° 283° (WNW) 06:22:35 145.980 - 146.000
BEESAT 3 26 Feb 06:18:54 06:22:36 40° 306° (NW) 06:26:22 437.485
XW-2D 26 Feb 06:20:14 06:24:01 60° 284° (WNW) 06:27:45 145.860 - 145.880
XW-2B 26 Feb 06:25:20 06:29:04 53° 286° (WNW) 06:32:46 145.730 - 145.750
Tancredo 1 26 Feb 06:28:17 06:30:55 23° 133° (SE) 06:33:35 437.200
XW-2C 26 Feb 06:34:07 06:37:44 40° 287° (WNW) 06:41:18 145.795 - 145.815
NUDT-PHONESAT 26 Feb 06:42:54 06:46:25 38° 287° (WNW) 06:49:54 437.300
SO-50 26 Feb 06:49:37 06:54:07 79° 241° (WSW) 06:58:36 436.795
LilacSat-2 26 Feb 06:52:20 06:55:28 24° 290° (WNW) 06:58:35 437.200
SEEDS 26 Feb 06:58:30 07:01:45 22° 94° (E) 07:04:58 437.485
BEESAT 2 26 Feb 06:59:10 07:02:52 37° 307° (NW) 07:06:37 435.950
UWE-3 26 Feb 07:06:59 07:08:55 12° 89° (E) 07:10:49 435.000/436.395/437.385
HO-68 26 Feb 07:11:05 07:18:03 51° 101° (E) 07:24:57 435.675
ZACube-1 26 Feb 07:26:28 07:27:48 11° 89° (E) 07:29:08 437.345
CUTE-I 26 Feb 07:27:00 07:31:17 25° 295° (WNW) 07:35:34 437.470
DOVE 4 26 Feb 07:28:13 07:30:58 15° 295° (WNW) 07:33:47 437.250
O/OREOS (USA 219) 26 Feb 07:32:15 07:36:25 34° 62° (ENE) 07:40:35 437.305
CUTE 1.7 + AOD 2 26 Feb 07:37:50 07:42:05 82° 281° (W) 07:46:15 437.475
ISS 26 Feb 07:40:21 07:43:37 63° 324° (NW) 07:46:54 437.550
XW-2A 26 Feb 07:41:24 07:44:38 36° 287° (WNW) 07:47:50 145.665 - 145.685
PRISM 26 Feb 07:49:05 07:52:26 25° 69° (ENE) 07:55:47 437.425
STRAND 1 26 Feb 07:51:52 07:54:46 15° 269° (W) 07:57:41 437.568
Tancredo 1 26 Feb 08:04:01 08:07:04 36° 329° (NNW) 08:10:08 437.200
CUBEBUG 2 26 Feb 08:05:37 08:10:25 87° 98° (E) 08:15:08 437.445
AO-73 26 Feb 08:12:04 08:16:10 33° 96° (E) 08:20:11 145.935
UNISAT 6 26 Feb 08:16:38 08:20:08 22° 67° (ENE) 08:23:42 437.425
TIGRISAT 26 Feb 08:16:47 08:20:09 21° 66° (ENE) 08:23:35 435.000
Oscar 11 26 Feb 08:17:37 08:21:30 32° 96° (E) 08:25:21 .
AAUSAT CUBESAT 2 26 Feb 08:19:45 08:23:52 85° 286° (WNW) 08:27:58 437.432
SEEDS 26 Feb 08:33:50 08:37:25 28° 290° (WNW) 08:40:59 437.485
UWE-3 26 Feb 08:41:08 08:45:47 62° 285° (WNW) 08:50:18 435.000/436.395/437.385
FO-29 26 Feb 08:53:14 08:59:44 38° 65° (ENE) 09:06:42 435.910
YUBILEINY 26 Feb 08:53:47 09:00:56 29° 83° (E) 09:08:04 435.215
HO-68 26 Feb 08:59:22 09:05:25 31° 298° (WNW) 09:11:28 435.675
ZACube-1 26 Feb 09:00:00 09:04:31 65° 286° (WNW) 09:08:56 437.345
O/OREOS (USA 219) 26 Feb 09:12:03 09:15:36 23° 258° (WSW) 09:19:10 437.305
ISS 26 Feb 09:18:35 09:20:36 15° 343° (NNW) 09:22:39 437.550
PRISM 26 Feb 09:24:20 09:27:39 24° 264° (W) 09:30:57 437.425
QB50P2 26 Feb 09:27:01 09:28:18 11° 63° (ENE) 09:29:34 145.880/145.840
Tancredo 1 26 Feb 09:42:40 09:44:04 12° 348° (NNW) 09:45:29 437.200
DELFI C3 26 Feb 09:43:32 09:47:28 80° 284° (WNW) 09:51:23 145.870
CUBEBUG 2 26 Feb 09:45:29 09:46:16 10° 299° (WNW) 09:47:03 437.445
AO-73 26 Feb 09:48:40 09:52:11 23° 293° (WNW) 09:55:38 145.935
TIGRISAT 26 Feb 09:52:24 09:56:33 37° 263° (W) 10:00:50 435.000
UNISAT 6 26 Feb 09:52:31 09:56:36 34° 263° (W) 10:00:49 437.425
Oscar 11 26 Feb 09:54:09 09:57:26 21° 292° (WNW) 10:00:41 .
LO-87 26 Feb 10:08:25 10:11:10 20° 95° (E) 10:13:55 145.935 - 145.965
AIST 2D 26 Feb 10:13:00 10:16:27 51° 75° (ENE) 10:19:56 435.315
ESTCUBE 1 26 Feb 10:26:16 10:29:25 19° 93° (E) 10:32:33 437.505/2401.250
DUCHIFAT 1 26 Feb 10:26:39 10:30:33 39° 72° (ENE) 10:34:30 145.980
FO-29 26 Feb 10:37:46 10:44:30 45° 264° (W) 10:51:52 435.910
EO-79 26 Feb 10:38:25 10:42:35 65° 75° (ENE) 10:46:49 145.935-145.965
YUBILEINY 26 Feb 10:48:27 10:57:07 59° 282° (WNW) 11:05:48 435.215
NANOSAT C BR1 26 Feb 10:54:40 10:58:53 88° 252° (WSW) 11:03:09 145.865
POLYITAN 1 26 Feb 10:56:14 11:00:28 77° 257° (WSW) 11:04:45 437.675
ISS 26 Feb 10:57:23 10:58:11 11° 3° (N) 10:59:00 437.550
QB50P2 26 Feb 10:59:18 11:03:30 65° 258° (WSW) 11:07:45 145.880/145.840
BUGSAT 1 26 Feb 11:19:10 11:23:05 52° 73° (ENE) 11:27:06 437.445
Tancredo 1 26 Feb 11:20:24 11:21:30 11° 9° (N) 11:22:35 437.200
LO-87 26 Feb 11:41:41 11:44:32 22° 290° (WNW) 11:47:23 145.935 - 145.965
Oscar 19 26 Feb 11:55:17 12:00:03 39° 70° (ENE) 12:04:49 437.125/150
ESTCUBE 1 26 Feb 12:02:12 12:06:21 38° 289° (WNW) 12:10:28 437.505/2401.250
DUCHIFAT 1 26 Feb 12:03:42 12:06:22 16° 267° (W) 12:09:04 145.980
50 SAT 26 Feb 12:04:56 12:08:18 49° 100° (E) 12:11:40 437.505
DX 1 26 Feb 12:10:15 12:14:13 34° 98° (E) 12:18:12 434.975-435.025
UKube-1 26 Feb 12:20:06 12:23:58 31° 97° (E) 12:27:48 .
SPROUT 26 Feb 12:21:38 12:25:58 86° 284° (WNW) 12:30:16 437.525
VELOX 1 26 Feb 12:22:14 12:26:39 72° 285° (WNW) 12:31:04 145.980
AO-85 26 Feb 12:32:11 12:36:05 66° 57° (ENE) 12:40:02 145.980
ISS 26 Feb 12:33:01 12:35:38 21° 24° (NNE) 12:38:14 437.550
AO-7 26 Feb 12:47:53 12:53:54 23° 53° (NE) 12:59:54 .
Gurwin Techsat 1B 26 Feb 12:49:01 12:54:17 71° 74° (ENE) 12:59:36 435.225
YUBILEINY 26 Feb 12:54:39 12:56:03 10° 304° (NW) 12:57:27 435.215
Tancredo 1 26 Feb 12:55:41 12:58:35 29° 28° (NNE) 13:01:27 437.200
BUGSAT 1 26 Feb 12:57:23 12:58:46 11° 269° (W) 13:00:10 437.445
BEESAT 3 26 Feb 13:01:11 13:01:55 10° 40° (NE) 13:02:39 437.485
Oscar 19 26 Feb 13:35:22 13:39:27 24° 265° (W) 13:43:33 437.125/150
BEESAT 2 26 Feb 13:41:29 13:42:55 12° 41° (NE) 13:44:21 435.950
DX 1 26 Feb 13:46:57 13:50:10 21° 294° (WNW) 13:53:24 434.975-435.025
UKube-1 26 Feb 13:56:29 13:59:49 22° 293° (WNW) 14:03:07 .
ISS 26 Feb 14:09:05 14:12:20 59° 221° (SW) 14:15:32 437.550
ITAMSAT 1 26 Feb 14:10:16 14:15:27 75° 74° (ENE) 14:20:42 435.822/435.867
PCSat 26 Feb 14:25:24 14:28:58 18° 105° (ESE) 14:32:33 145.827
ITUPSAT 1 26 Feb 14:27:16 14:31:56 50° 100° (E) 14:36:33 437.325
Tancredo 1 26 Feb 14:31:57 14:34:51 31° 225° (SW) 14:37:43 437.200
Gurwin Techsat 1B 26 Feb 14:32:10 14:34:43 14° 270° (W) 14:37:18 435.225
BEESAT 26 Feb 14:32:57 14:37:41 59° 101° (ESE) 14:42:22 436.000
BEESAT 3 26 Feb 14:36:07 14:40:10 84° 59° (ENE) 14:44:09 437.485
AO-7 26 Feb 14:37:18 14:45:41 85° 253° (WSW) 14:54:06 .
MOZHAYETS 4 26 Feb 14:43:07 14:47:01 27° 95° (E) 14:50:53
KKS-1 26 Feb 15:07:01 15:08:08 11° 90° (E) 15:09:14 437.445
BEESAT 2 26 Feb 15:17:12 15:21:17 86° 240° (WSW) 15:25:18 435.950
NO-84 26 Feb 15:22:59 15:25:22 20° 126° (SE) 15:27:53 435.350 FM
CUBESAT XI-V 26 Feb 15:46:20 15:49:41 20° 93° (E) 15:53:00 437.345
ITAMSAT 1 26 Feb 15:53:24 15:55:27 12° 270° (W) 15:57:31 435.822/435.867
LilacSat-2 26 Feb 16:01:30 16:02:22 11° 64° (ENE) 16:03:15 437.200
ITUPSAT 1 26 Feb 16:06:11 16:09:20 18° 296° (WNW) 16:12:30 437.325
PCSat 26 Feb 16:06:30 16:11:50 59° 302° (WNW) 16:17:13 145.827
BEESAT 26 Feb 16:12:12 16:14:57 15° 297° (WNW) 16:17:41 436.000
MOZHAYETS 4 26 Feb 16:20:11 16:24:07 28° 291° (WNW) 16:28:00
RS-15 26 Feb 16:24:00 16:35:28 59° 112° (ESE) 16:47:23 29.354- 29.394
AO-7 26 Feb 16:34:51 16:39:29 16° 270° (W) 16:44:09 .
KKS-1 26 Feb 16:40:38 16:45:06 66° 286° (WNW) 16:49:32 437.445
KAITUO 1B 26 Feb 16:48:07 16:51:27 29° 71° (ENE) 16:54:47 145.475/437.950
DOVE 4 26 Feb 16:54:12 16:58:11 49° 74° (ENE) 17:02:14 437.250
XW-2F 26 Feb 16:54:50 16:58:28 42° 74° (ENE) 17:02:08 145.980 - 146.000
NO-84 26 Feb 16:59:49 17:02:47 33° 325° (NW) 17:06:02 435.350 FM
XW-2D 26 Feb 17:00:13 17:03:57 53° 75° (ENE) 17:07:44 145.860 - 145.880
XW-2B 26 Feb 17:05:15 17:09:02 60° 75° (ENE) 17:12:51 145.730 - 145.750
CUTE-I 26 Feb 17:07:17 17:12:32 64° 73° (ENE) 17:17:51 437.470
M-CUBED/EXP-1 PRIME 26 Feb 17:10:10 17:13:55 46° 105° (ESE) 17:17:56 437.505
STARS 26 Feb 17:10:49 17:15:15 70° 286° (WNW) 17:19:39 437.465
XW-2C 26 Feb 17:13:53 17:17:44 79° 76° (ENE) 17:21:37 145.795 - 145.815
NUDT-PHONESAT 26 Feb 17:20:49 17:24:35 78° 77° (ENE) 17:28:23 437.300
CUBESAT XI-V 26 Feb 17:22:55 17:27:10 38° 289° (WNW) 17:31:23 437.345
LilacSat-2 26 Feb 17:32:20 17:36:08 56° 260° (W) 17:39:59 437.200
HO-68 26 Feb 17:39:03 17:45:23 36° 64° (ENE) 17:51:45 435.675
SEEDS 26 Feb 17:50:13 17:52:36 15° 65° (ENE) 17:54:58 437.485
PCSat 26 Feb 17:55:01 17:56:24 11° 322° (NW) 17:57:48 145.827
XW-2A 26 Feb 18:11:32 18:14:51 55° 75° (ENE) 18:18:12 145.665 - 145.685
STRAND 1 26 Feb 18:22:13 18:26:12 22° 94° (E) 18:30:09 437.568
KAITUO 1B 26 Feb 18:22:53 18:25:30 18° 266° (W) 18:28:07 145.475/437.950
CUTE 1.7 + AOD 2 26 Feb 18:29:08 18:33:21 61° 75° (ENE) 18:37:35 437.475
XW-2F 26 Feb 18:31:10 18:32:49 12° 269° (W) 18:34:28 145.980 - 146.000
DOVE 4 26 Feb 18:34:36 18:36:13 12° 270° (W) 18:37:50 437.250
RS-15 26 Feb 18:36:53 18:48:21 47° 316° (NW) 19:00:12 29.354- 29.394
M-CUBED/EXP-1 PRIME 26 Feb 18:45:59 18:48:05 14° 298° (WNW) 18:50:16 437.505
CUTE-I 26 Feb 18:49:58 18:53:01 15° 269° (W) 18:56:05 437.470
CUBEBUG 2 26 Feb 19:02:25 19:06:47 63° 75° (ENE) 19:11:22 437.445
YUBILEINY 26 Feb 19:06:11 19:09:34 12° 58° (ENE) 19:12:56 435.215
AO-73 26 Feb 19:06:43 19:10:18 24° 68° (ENE) 19:13:58 145.935
AAUSAT CUBESAT 2 26 Feb 19:08:36 19:12:39 54° 75° (ENE) 19:16:42 437.432
Oscar 11 26 Feb 19:11:47 19:15:12 23° 68° (ENE) 19:18:39 .
SEEDS 26 Feb 19:23:48 19:27:53 46° 261° (W) 19:31:58 437.485
HO-68 26 Feb 19:26:10 19:32:56 44° 261° (W) 19:39:44 435.675
UWE-3 26 Feb 19:36:35 19:41:02 87° 256° (WSW) 19:45:40 435.000/436.395/437.385
ZACube-1 26 Feb 19:54:11 19:58:39 86° 75° (ENE) 20:03:13 437.345
STRAND 1 26 Feb 20:00:40 20:05:30 42° 290° (WNW) 20:10:19 437.568
CUTE 1.7 + AOD 2 26 Feb 20:08:35 20:09:33 11° 270° (W) 20:10:31 437.475
DELFI C3 26 Feb 20:27:53 20:31:42 48° 74° (ENE) 20:35:31 145.870
CUBEBUG 2 26 Feb 20:42:24 20:43:52 11° 271° (W) 20:45:21 437.445
AO-73 26 Feb 20:42:25 20:46:22 31° 264° (W) 20:50:24 145.935
AAUSAT CUBESAT 2 26 Feb 20:47:02 20:48:25 11° 269° (W) 20:49:48 437.432
Oscar 11 26 Feb 20:47:21 20:51:10 30° 264° (W) 20:55:01 .
RS-15 26 Feb 20:56:18 21:05:12 22° 347° (NNW) 21:14:09 29.354- 29.394
YUBILEINY 26 Feb 20:59:31 21:08:14 68° 80° (E) 21:16:50 435.215
SO-50 26 Feb 21:02:50 21:07:13 40° 116° (ESE) 21:11:33 436.795
PRISM 26 Feb 21:05:29 21:09:24 44° 100° (E) 21:13:18 437.425
ESTCUBE 1 26 Feb 21:25:28 21:28:19 17° 65° (ENE) 21:31:10 437.505/2401.250
O/OREOS (USA 219) 26 Feb 21:43:32 21:47:47 44° 106° (ESE) 21:52:04 437.305
TIGRISAT 26 Feb 21:44:15 21:48:49 49° 99° (E) 21:53:18 435.000
UNISAT 6 26 Feb 21:44:25 21:49:02 53° 99° (E) 21:53:33 437.425
FO-29 26 Feb 21:48:56 21:55:40 35° 93° (E) 22:01:46 435.910
NO-84 26 Feb 21:56:42 21:59:45 20° 29° (NNE) 22:02:55 435.350 FM
DELFI C3 26 Feb 22:05:23 22:06:45 11° 269° (W) 22:08:06 145.870
LO-87 26 Feb 22:16:08 22:19:38 64° 258° (WSW) 22:23:10 145.935 - 145.965
EO-79 26 Feb 22:26:10 22:27:31 11° 90° (E) 22:28:51 145.935-145.965
50 SAT 26 Feb 22:38:58 22:41:19 17° 69° (ENE) 22:43:42 437.505
NANOSAT C BR1 26 Feb 22:40:58 22:43:36 16° 93° (E) 22:46:11 145.865
PRISM 26 Feb 22:42:03 22:44:18 14° 295° (WNW) 22:46:32 437.425
POLYITAN 1 26 Feb 22:42:46 22:45:47 18° 93° (E) 22:48:45 437.675
SO-50 26 Feb 22:43:56 22:47:47 25° 313° (NW) 22:51:37 436.795
QB50P2 26 Feb 22:45:35 22:48:52 21° 94° (E) 22:52:08 145.880/145.840
YUBILEINY 26 Feb 22:57:39 23:04:10 24° 279° (W) 23:10:41 435.215
ESTCUBE 1 26 Feb 23:00:24 23:04:44 47° 261° (W) 23:09:06 437.505/2401.250
DX 1 26 Feb 23:05:05 23:08:43 27° 69° (ENE) 23:12:23 434.975-435.025
AIST 2D 26 Feb 23:12:00 23:15:34 73° 101° (E) 23:19:05 435.315
PCSat 26 Feb 23:13:08 23:16:22 16° 43° (NE) 23:19:35 145.827
SPROUT 26 Feb 23:13:48 23:18:00 62° 74° (ENE) 23:22:14 437.525
RS-15 26 Feb 23:13:57 23:23:49 26° 24° (NNE) 23:33:28 29.354- 29.394
UKube-1 26 Feb 23:13:58 23:17:27 24° 68° (ENE) 23:20:55 .
VELOX 1 26 Feb 23:18:16 23:22:39 89° 84° (E) 23:27:03 145.980
TIGRISAT 26 Feb 23:22:01 23:25:04 17° 295° (WNW) 23:28:05 435.000
UNISAT 6 26 Feb 23:22:25 23:25:16 16° 296° (WNW) 23:28:06 437.425
O/OREOS (USA 219) 26 Feb 23:24:19 23:27:25 18° 304° (NW) 23:30:31 437.305
FO-29 26 Feb 23:33:38 23:40:47 46° 293° (WNW) 23:47:16 435.910
NO-84 26 Feb 23:33:41 23:37:50 79° 224° (SW) 23:42:12 435.350 FM
DUCHIFAT 1 26 Feb 23:46:30 23:50:48 82° 104° (ESE) 23:55:03 145.980
EO-79 26 Feb 23:59:24 00:03:38 58° 286° (WNW) 00:07:49 145.935-145.965
Oscar 19 27 Feb 00:09:01 00:11:43 14° 91° (E) 00:14:24 437.125/150
50 SAT 27 Feb 00:11:20 00:14:16 25° 264° (W) 00:17:12 437.505
NANOSAT C BR1 27 Feb 00:15:27 00:19:28 41° 288° (WNW) 00:23:29 145.865
POLYITAN 1 27 Feb 00:17:43 00:21:40 36° 289° (WNW) 00:25:35 437.675
QB50P2 27 Feb 00:20:52 00:24:40 31° 290° (WNW) 00:28:27 145.880/145.840
BUGSAT 1 27 Feb 00:36:33 00:40:48 79° 284° (WNW) 00:45:03 437.445
DX 1 27 Feb 00:41:18 00:44:51 25° 264° (W) 00:48:26 434.975-435.025
SRMSAT 27 Feb 00:45:51 00:46:41 10° 182° (S) 00:47:30 437.500
UKube-1 27 Feb 00:49:40 00:53:21 27° 263° (W) 00:57:03 .
SPROUT 27 Feb 00:53:35 00:54:18 10° 270° (W) 00:55:01 437.525
PCSat 27 Feb 00:55:04 01:00:32 89° 243° (WSW) 01:05:57 145.827
Gurwin Techsat 1B 27 Feb 01:06:28 01:11:06 29° 96° (E) 01:15:41 435.225
NO-84 27 Feb 01:14:28 01:15:00 10° 239° (WSW) 01:15:33 435.350 FM
RS-15 27 Feb 01:27:02 01:39:22 66° 53° (NE) 01:51:06 29.354- 29.394
ITUPSAT 1 27 Feb 01:32:55 01:37:35 53° 72° (ENE) 01:42:16 437.325
BEESAT 27 Feb 01:38:14 01:42:57 62° 73° (ENE) 01:47:41 436.000
MOZHAYETS 4 27 Feb 01:44:15 01:47:58 24° 68° (ENE) 01:51:42
Oscar 19 27 Feb 01:46:23 01:51:27 64° 287° (WNW) 01:56:31 437.125/150
ITAMSAT 1 27 Feb 02:24:26 02:28:54 28° 96° (E) 02:33:20 435.822/435.867
AO-7 27 Feb 02:40:25 02:47:47 34° 97° (E) 02:55:04 .
PCSat 27 Feb 02:41:54 02:43:03 11° 259° (WSW) 02:44:13 145.827
AO-85 27 Feb 02:45:55 02:49:48 27° 114° (ESE) 02:53:28 145.980
Gurwin Techsat 1B 27 Feb 02:46:16 02:51:01 34° 292° (WNW) 02:55:44 435.225
CUBESAT XI-V 27 Feb 02:49:07 02:52:20 19° 66° (ENE) 02:55:33 437.345
ITUPSAT 1 27 Feb 03:12:52 03:15:42 16° 268° (W) 03:18:35 437.325
BEESAT 27 Feb 03:18:50 03:21:07 13° 269° (W) 03:23:23 436.000
MOZHAYETS 4 27 Feb 03:20:47 03:24:57 32° 263° (W) 03:29:08
KKS-1 27 Feb 03:37:28 03:41:53 81° 255° (WSW) 03:46:20 437.445
RS-15 27 Feb 03:40:28 03:51:03 37° 255° (WSW) 04:01:16 29.354- 29.394
M-CUBED/EXP-1 PRIME 27 Feb 03:56:16 03:59:24 44° 69° (ENE) 04:02:32 437.505
ITAMSAT 1 27 Feb 04:03:39 04:08:22 35° 292° (WNW) 04:13:02 435.822/435.867
STARS 27 Feb 04:06:11 04:10:33 88° 259° (WSW) 04:14:58 437.465
CUBESAT XI-V 27 Feb 04:24:56 04:29:22 43° 261° (W) 04:33:48 437.345
AO-85 27 Feb 04:26:06 04:30:06 31° 308° (NW) 04:33:54 145.980
BEESAT 3 27 Feb 04:26:37 04:29:02 16° 110° (ESE) 04:31:28 437.485
AO-7 27 Feb 04:32:47 04:40:45 53° 295° (WNW) 04:48:41 .
DOVE 4 27 Feb 04:53:50 04:56:54 17° 93° (E) 05:00:02 437.250
LilacSat-2 27 Feb 05:07:29 05:09:51 16° 93° (E) 05:12:12 437.200
BEESAT 2 27 Feb 05:08:45 05:11:33 19° 111° (ESE) 05:14:24 435.950
CUTE-I 27 Feb 05:25:38 05:30:10 27° 95° (E) 05:34:39 437.470
Tancredo 1 27 Feb 05:34:49 05:35:51 11° 128° (SE) 05:36:52 437.200
SO-50 27 Feb 05:34:56 05:38:54 29° 49° (NE) 05:42:49 436.795
STRAND 1 27 Feb 05:37:08 05:41:33 30° 68° (ENE) 05:46:00 437.568
